Location: Binningen
(47.7924°N, 8.7261°E)
Time: 20:36:05
(UTC+00:00)

SL-8 Rocket - Pass Details

Date: 17 May 2021
Orbit: 957 x 990 km, 82.9° (Epoch: 21 June)

Event Time Altitude Azimuth Distance (km) Brightness Sun altitude
Rises 21:29:32 0° 350° (N) 3,717 8.4 -18.1°
Reaches altitude 10° 21:32:04 10° 351° (N) 2,762 7.5 -18.3°
Maximum altitude 21:38:26 88° 263° (W) 995 4.0 -18.8°
Enters shadow 21:41:47 30° 174° (S) 1,684 4.7 -19.1°
